Weather in Chyzhivka

Ukraine / Zhytomyr Region     50°40′04″N   27°37′22″E
В апреле 2022 года жителям России запретили посещать сайт meteo.paraplan.net по решению Генеральной прокуратуры. Аудитория сайта уменьшилась в 10 раз. Владельцы сайта не видят смысла в поддержке погодного сервера в таких условиях. Сайт будет закрыт в октябре.
temp.,
°C
wind,
m/s
gust,
m/s
humid.,
%
clouds,
%
prec.,
mm/h
press.,
hPa
HPBL,
m
5 october, wed
wed500:00+8w6149216 0.1 1018597
03:00+8wnw513933 0.1 1021550
06:00+6w41196100 0.0 1022388
09:00+7w41092100 0.0 1024363
12:00+11w5871100 0.0 1024716
15:00+14w5662100 0.0 1024972
18:00+12wsw3875100 0.0 1024319
21:00+9sw3985100 0.0 1025204
6 october, thu
thu600:00+10sw41180100 0.0 1024294
03:00+10sw41181100 0.0 1025285
06:00+8wsw41183100 0.0 1024247
09:00+10wsw41177100 0.0 1024317
12:00+15wsw5860100 0.0 1024563
15:00+18w585612 0.0 1024883
18:00+15w4107149 0.0 1024346
21:00+12w3118888 0.0 1026243
7 october, fri
fri700:00+12wnw3119125 0.0 1028309
03:00+10nw389672 0.0 1029184
06:00+9nw26955 0.0 1030111
09:00+10nw24894 0.0 1031151
12:00+15nw23540 0.0 1031669
15:00+16nw22480 0.0 1029931
18:00+13ne11645 0.0 102810
21:00+10sse22735 0.0 102810
8 october, sat
sat800:00+8sse337726 0.0 102841
03:00+7sse35795 0.0 102687
06:00+6sse37809 0.0 1025117
09:00+8sse4107363 0.0 1024256
12:00+14s5853100 0.0 1023535
15:00+17s574669 0.0 1020784
18:00+13s356496 0.0 101980
21:00+11ssw3668100 0.0 101997
9 october, sun
sun900:00+10ssw367496 0.0 1019107
03:00+10wsw3691100 0.0 1019107
06:00+13nw51182100 0.1 1020741
09:00+10w399577 2.5 1022435
12:00+14nw57690 0.2 10231010
15:00+15nw57543 0.2 10241435
18:00+12wnw35680 0.0 102583
21:00+8wnw22760 0.0 102722